sat.trackr.live / text

‹ back to catalog

STARLINK-31512

NORAD 59500 · 2024-071S

PAYLOAD ACTIVE UNKNOWN

§ Identity

Operator
Country
US
Launch date
2024-04-13
Launch site
AFETR
Launch vehicle
Mass (kg)
RCS (m²)

Purposes: comms

External: N2YO · Heavens-Above · Gunter

§ Orbital elements

Epoch: 2026-09-21T08:02:52.211328Z

Period
94.27 min
Inclination
43.0027°
Eccentricity
0.0001478
Mean motion
15.27582183 rev/d
Perigee alt
482.0 km
Apogee alt
484.1 km
Semi-major
6,861.2 km
B*
6.9368e-5
RAAN
274.6074°
Arg perigee
287.8637°
Mean anomaly
72.2054°
Rev number
13,858

§ Raw data

STARLINK-315121 59500U 24071S   26264.33532652  .00001647  00000+0  69368-4 0  99952 59500  43.0027 274.6074 0001478 287.8637  72.2054 15.27582183138585

JSON: /api/v1/satellites/59500 · /tle

For live sub-satellite position, see the globe view (requires WebGL).

§ Visibility from observer

Set your observer location to see the next 7 days of passes ≥ 10°. The values pass through the URL so the page stays shareable.

No JS? Fill the form by hand. The geolocation button needs JavaScript.